2017-008BA

Last updated on Thu Mar 09 2017 00:15:03 GMT+0000 (Coordinated Universal Time)

1 41996U 17008BA 17067.77172816 .00003105 00000-0 13954-3 0 9999 2 41996 97.5091 129.3677 0008588 191.4487 168.6501 15.21874044 2487
UTC large
Height (km)
Speed (km/s)
/
Latitude / Longitude
Inclination (degrees)
Orbital Period (minutes)
Azimuth
Elevation
Range (km)
Doppler Factor

Next 0 passes for location: London (51.5072 / 0.1276)

Sorry there are no passes over London.